Location: Home
(42.5358°N, 72.7383°W)
Time: 19:23:54
(UTC-05:00)

A-11 Canister half - Pass Details

Date: 06 December 2021
Orbit: 1524 x 1684 km, 47.3° (Epoch: 23 January)

Event Time Altitude Azimuth Distance (km) Brightness Sun altitude
Rises 05:28:19 0° 291° (WNW) 4,931 - -17.5°
Reaches altitude 10° 05:31:30 10° 292° (WNW) 3,932 - -16.9°
Exits shadow 05:34:09 21° 293° (WNW) 3,128 10.0 -16.4°
Maximum altitude 05:41:39 87° 23° (NNE) 1,646 9.1 -15.1°
Drops below altitude 10° 05:51:26 10° 113° (ESE) 3,808 12.5 -13.4°
Sets 05:54:29 0° 114° (ESE) 4,771 13.6 -12.8°
